Regional Weather Roundup
Issued by NWS Boston, MA

Current Version | Previous Version | Text Only | Print | Product List | Glossary Off
Versions: 1 2 3 4 5 6 7 8 9 10 11 12 13 14 15 16 17 18 19 20 21 22 23 24 25 26 27 28 29 30 31 32 33 34 35 36 37 38 39 40 41 42 43 44 45 46 47 48 49 50
000 ASUS41 KBOX 191910 RWRBOX REGIONAL WEATHER ROUNDUP NATIONAL WEATHER SERVICE BOSTON/NORTON MA 300 PM EDT SUN AUG 19 2018 NOTE: "FAIR" INDICATES FEW OR NO CLOUDS BELOW 12,000 FEET WITH NO SIGNIFICANT WEATHER AND/OR OBSTRUCTIONS TO VISIBILITY. MAZALL-192000- EASTERN MASSACHUSETTS CITY SKY/WX TMP DP RH WIND PRES REMARKS BOSTON CLOUDY 71 61 70 NE16 30.06R BEVERLY CLOUDY 68 60 75 NE9 30.06R LAWRENCE PTSUNNY 74 59 59 NE13 30.08R BEDFORD FAIR 73 58 59 NE12 30.05R BLUE HILL N/A 67 60 78 NE15G25 30.05R NORWOOD PTSUNNY 74 61 63 NE13G21 30.04S MARSHFIELD CLOUDY 70 61 73 NE10G17 30.04S PLYMOUTH CLOUDY 69 61 75 NE16G25 30.03S TAUNTON NOT AVBL NEW BEDFORD CLOUDY 70 62 76 NE15G22 30.01R $$ MAZALL-192000- CAPE COD AND THE ISLANDS CITY SKY/WX TMP DP RH WIND PRES REMARKS FALMOUTH CLOUDY 66 63 88 NE15G23 30.02S HYANNIS CLOUDY 69 63 81 NE14G24 30.00R CHATHAM NOT AVBL PROVINCETOWN CLOUDY 68 63 84 NE12 30.03R NANTUCKET CLOUDY 70 64 81 N22 29.98R MARTHAS VNYRD CLOUDY 70 63 78 N14G21 29.99R $$ MAZALL-192000- CENTRAL AND WESTERN MASSACHUSETTS CITY SKY/WX TMP DP RH WIND PRES REMARKS WORCESTER FAIR 71 54 54 E15G23 30.06S FITCHBURG FAIR 74 56 53 E12 30.07R ORANGE FAIR 78 53 41 NE15G23 30.06S SPRINGFIELD MOSUNNY 78 53 41 E12G23 30.01F WESTFIELD FAIR 78 56 46 NE12G18 30.02F NORTH ADAMS FAIR 75 56 51 SE6 30.04S PITTSFIELD FAIR 73 53 49 E9 30.05S $$ RIZALL-192000- RHODE ISLAND CITY SKY/WX TMP DP RH WIND PRES REMARKS PROVIDENCE FAIR 75 59 57 NE18G29 30.02S NEWPORT PTSUNNY 73 61 65 NE15G24 30.01R BLOCK ISLAND CLOUDY 70 63 78 NE15G22 30.00S SMITHFIELD FAIR 72 59 63 NE15G23 30.04S WESTERLY CLOUDY 77 62 59 NE9G21 30.00S $$ CTZALL-192000- CONNECTICUT CITY SKY/WX TMP DP RH WIND PRES REMARKS BRADLEY INTL PTSUNNY 79 56 45 NE14 30.01F HARTFORD CLOUDY 78 58 49 NE9 30.00S BRIDGEPORT CLOUDY 75 64 68 E7 29.99S DANBURY CLOUDY 74 60 61 NE8 30.02S GROTON FAIR 78 61 55 NE13G22 29.97F NEW HAVEN CLOUDY 78 62 57 NE8 29.99F CHESTER PTSUNNY 79 57 47 NE10 30.01S MERIDEN CLOUDY 78 61 55 NE6 30.00S WILLIMANTIC PTSUNNY 78 57 48 E8 30.00F OXFORD CLOUDY 75 61 61 E14 30.03S $$ MEZ002-015-021-024-NHZ003-005-008-011-012-014-VTZ005-008-192000- NORTHERN NEW ENGLAND CITY SKY/WX TMP DP RH WIND PRES REMARKS PORTLAND ME FAIR 73 60 63 E13 30.07S BANGOR ME PTSUNNY 78 54 43 N10G23 30.08F CONCORD NH FAIR 78 56 46 NE7 30.06R MANCHESTER NH PTSUNNY 77 53 43 E8 30.04S NASHUA NH FAIR 77 58 51 SE10 30.07R PORTSMOUTH NH PTSUNNY 71 59 66 E9G17 30.06R JAFFREY NH FAIR 75 56 51 VRB3 30.09R KEENE NH FAIR N/A N/A N/A CALM 30.06R BURLINGTON VT FAIR 81 58 45 N10 30.03F MT. WASHINGTON MOSUNNY 50 45 81 E6 N/A $$ NYZ052-076-192000- EASTERN NEW YORK CITY SKY/WX TMP DP RH WIND PRES REMARKS ALBANY PTSUNNY 79 56 45 E7 30.03S NEW YORK CITY CLOUDY 73 62 68 NE9G18 29.99S $$ ANZALL-192000- MARINE OBSERVATIONS STATION/POSITION TIME TEMP WIND PRES VSBY WAVE AIR SEA DIR/SP/G HT/PER (UTC) (F) (DEG/KT/KT) (MB) (MI) (FT/S) BOSTON BUOY 1850 66 69 40/ 17/ 19 1016.8R 5/ 7 BUZZARDS BAY 1800 68 40/ 23/ 25 1015.8R NANTUCKET SOUND 1850 69 76 30/ 17/ 23 1015.6R MASS BAY-STELLWA 1804 66 67 40/ 17/ 21 1015.8S 1 7/8 6/ 6 ISLE OF SHOALS 1800 65 60/ 19/ 20 1017.3F S OF BLOCK IS 1843 75 N/A 5/ 5 $$ ......................KEY......................... SKY/WX - SKY CONDITION/PRESENT WEATHER TMP - TEMPERATURE IN FAHRENHEIT DWPT - DEWPOINT IN FAHRENHEIT RH - RELATIVE HUMIDITY IN PERCENT WIND - DIRECTION AND SPEED IN MPH PRES - MEAN SEA LEVEL PRESSURE IN INCHES OF HG WCI - WIND CHILL INDEX VSB - VISIBILITY IN MILES HX - HEAT INDEX TC - TEMPERATURE IN CELSIUS VRB - VARIABLE WIND DIRECTION N/A - NOT AVAILABLE

USA.gov is the U.S. government's official web portal to all federal, state and local government web resources and services.